Location: Unspecified
(0.0000°N, 0.0000°E)
Time: 12:30:04
(UTC+01:00)

BREEZE-M DEB (TANK) - Visible Passes

Search period start: 25 November 2017 00:00
Search period end: 05 December 2017 00:00
Orbit: 355 x 16285 km, 49.5° (Epoch: 22 November)

Date Brightness Start Highest point End Pass type
(mag) Time Alt. Az. Time Alt. Az. Time Alt. Az.
25 Nov 8.4 03:53:36 10° S 05:37:18 44° E 07:18:15 10° NE visible
26 Nov 8.5 04:32:33 10° SSW 06:16:11 58° E 08:03:21 10° NE visible
27 Nov 8.5 05:12:12 10° SSW 06:55:07 72° E 08:46:22 10° NNE visible
27 Nov 2.3 19:19:07 10° NNW 19:21:58 32° NE 19:24:12 10° ESE visible
28 Nov 8.6 05:52:29 10° SSW 07:34:19 87° E 09:28:04 10° NNE visible
28 Nov 3.1 19:58:44 10° WNW 20:01:12 36° SW 20:03:40 10° SSE visible
30 Nov 8.4 02:08:57 10° SSE 03:41:08 20° E 04:59:35 10° ENE visible
01 Dec 8.4 02:43:54 10° S 04:20:00 32° E 05:57:21 10° NE visible
02 Dec 8.4 03:21:47 10° S 04:58:11 46° E 06:46:04 10° NE visible
03 Dec 8.5 04:00:41 10° SSW 05:36:22 60° E 07:31:04 10° NE visible
04 Dec 8.5 04:40:14 10° SSW 06:14:59 74° E 08:14:03 10° NNE visible
